Temp
15 13 14 14 14 14 13 12 12 12 11 11 11 10 10 10 10 9 9 9 8 7
14 14 14 14 13 12 12 12 11 11 11 10 9 9 9 9 9 8 8 9 8 8
12 14 13 12 12 12 11 11 10 10 10 9 9 9 8 8 8 8 7 8 7 7
11 12 12 12 12 11 11 10 9 9 9 8 8 7 7 7 7 7 7 7 6 6
11 11 11 11 10 10 9 9 8 8 7 7 7 7 6 6 6 6 5 6 6 5
11 10 10 10 10 9 8 8 7 7 6 6 6 5 5 5 5 5 5 4 4 2
10 10 9 9 9 8 8 7 6 5 5 5 5 5 4 4 4 4 4 3 2 2
9 9 9 8 8 7 6 5 4 3 3 3 3 4 4 4 3 3 2 1 1 1
9 8 8 8 7 6 5 4 2 1 1 1 2 3 3 3 3 1 1 1 0 0
8 8 7 7 6 5 4 3 2 1 0 0 -0 2 2 2 0 0 0 -0 -0 -0
8 7 7 7 6 4 3 2 1 1 0 -0 -1 0 1 0 0 0 0 -0 -0 0
7 7 6 6 5 4 2 1 1 0 -0 -1 -1 -0 0 0 1 0 0 0 -0 0
6 6 6 5 4 3 1 0 0 -0 -0 -1 -1 -0 0 0 1 1 0 -0 0 0
6 6 5 5 4 2 0 -0 -0 -1 -1 -2 -1 -0 -0 0 0 0 0 0 0 0
Height
1514 1520 1517 1521 1522 1523 1525 1524 1524 1524 1524 1524 1524 1523 1523 1522 1522 1520 1519 1518 1518 1520
1511 1512 1514 1517 1518 1519 1521 1521 1521 1520 1519 1518 1518 1518 1518 1517 1516 1515 1513 1513 1513 1513
1508 1506 1511 1513 1514 1515 1515 1515 1515 1514 1513 1513 1513 1513 1512 1512 1510 1510 1509 1507 1509 1508
1505 1502 1506 1507 1508 1509 1510 1509 1509 1509 1507 1506 1506 1507 1506 1505 1505 1505 1503 1504 1504 1504
1499 1500 1501 1502 1504 1504 1505 1503 1502 1502 1502 1501 1501 1501 1500 1500 1499 1499 1499 1498 1499 1499
1497 1498 1499 1498 1499 1499 1499 1497 1496 1496 1496 1496 1495 1496 1495 1495 1494 1493 1495 1495 1495 1496
1493 1494 1495 1495 1496 1495 1493 1492 1491 1490 1490 1491 1491 1491 1491 1490 1490 1489 1490 1490 1492 1492
1490 1490 1491 1491 1491 1490 1488 1488 1487 1486 1485 1486 1486 1486 1486 1485 1486 1485 1485 1486 1487 1487
1486 1486 1486 1486 1485 1485 1484 1483 1482 1482 1482 1480 1482 1480 1482 1481 1482 1482 1483 1483 1485 1485
1481 1481 1481 1480 1480 1479 1479 1479 1479 1478 1479 1477 1477 1477 1478 1478 1479 1480 1480 1482 1484 1483
1476 1476 1476 1476 1475 1475 1475 1476 1476 1475 1475 1475 1476 1475 1474 1476 1477 1478 1479 1481 1482 1481
1472 1472 1471 1471 1471 1471 1471 1472 1472 1472 1472 1473 1472 1472 1473 1475 1476 1477 1478 1480 1481 1480
1467 1467 1467 1467 1466 1467 1467 1468 1468 1468 1469 1470 1470 1471 1472 1473 1475 1476 1477 1479 1479 1478
1462 1462 1462 1462 1461 1462 1463 1464 1464 1465 1466 1467 1468 1469 1471 1472 1473 1474 1476 1476 1476 1476
Wind_Speed
21 19 16 17 17 19 20 21 23 21 20 20 21 21 22 22 22 22 23 23 19 18
19 17 18 18 17 18 20 22 22 22 22 22 22 22 22 21 21 21 22 22 20 19
19 16 15 15 16 18 21 22 22 23 23 23 23 23 22 22 20 20 19 20 17 17
15 12 13 15 18 19 21 22 22 23 23 22 22 21 20 20 19 18 18 19 17 16
14 13 15 16 18 19 20 21 21 22 21 21 21 20 19 18 17 17 18 18 18 16
12 12 14 16 17 18 19 20 22 21 21 21 20 19 18 18 17 17 17 16 16 15
13 13 15 16 18 18 20 20 21 21 20 19 19 17 17 17 17 17 16 15 14 14
13 15 16 17 18 17 17 17 18 19 19 19 18 17 17 16 16 15 13 11 11 12
15 15 17 17 17 17 16 15 16 16 15 16 18 16 15 15 13 11 9 9 9 9
15 15 17 18 18 17 15 14 13 15 14 14 15 12 11 9 8 7 7 8 8 7
16 16 18 20 18 17 15 14 14 15 15 13 14 9 7 8 7 7 7 7 7 6
17 17 19 20 18 17 15 14 14 14 13 13 11 8 8 7 7 6 6 6 6 6
17 18 20 20 18 15 14 14 15 14 13 13 12 10 9 8 7 7 7 7 6 7
18 19 20 19 18 15 15 15 15 14 13 12 11 11 10 8 8 8 8 7 7 6
Wind_Direction
225 225 222 238 249 262 263 267 276 279 277 277 278 279 279 280 280 278 276 278 271 265
222 230 242 251 259 265 270 272 275 277 279 280 280 280 280 281 279 275 276 278 274 270
227 233 250 258 270 273 275 277 278 279 280 280 281 281 281 280 277 279 279 278 277 272
233 240 250 264 267 270 274 275 279 280 281 280 279 279 279 278 279 277 273 277 274 267
231 242 252 260 269 275 277 280 280 281 280 278 276 275 273 273 275 274 271 271 268 259
249 262 269 274 281 283 283 284 284 281 277 274 273 272 270 271 269 272 273 273 268 262
250 263 271 278 280 284 287 286 280 277 274 274 272 269 268 266 267 268 268 268 262 253
258 267 273 279 283 287 288 288 284 275 272 269 269 267 266 263 263 264 265 271 255 243
261 272 278 283 286 287 288 291 300 286 279 276 270 266 263 261 254 258 254 243 237 238
265 274 281 286 290 291 291 290 289 292 282 275 277 265 254 249 232 226 223 224 223 217
267 277 283 287 290 289 287 283 285 283 276 268 266 251 231 214 209 210 210 216 222 225
265 276 282 287 287 283 281 283 279 273 265 263 260 230 212 202 202 212 213 222 231 246
266 276 282 285 281 280 277 275 270 261 255 256 244 219 213 215 214 222 226 236 242 259
269 275 278 279 280 275 271 268 262 252 245 243 223 214 217 225 230 235 237 243 248 254